TimeEDT,TemperatureF,Dew PointF,Humidity,Sea Level PressureIn,VisibilityMPH,Wind Direction,Wind SpeedMPH,Gust SpeedMPH,PrecipitationIn,Events,Conditions,WindDirDegrees,DateUTC
12:20 AM,62.6,60.8,94,29.55,4.0,WSW,6.9,-,0.06,Rain,Rain,250,2011-10-19 04:20:00
12:34 AM,62.6,60.8,94,29.55,1.8,WSW,8.1,-,0.13,Rain,Rain,250,2011-10-19 04:34:00
12:46 AM,62.6,60.8,94,29.54,7.0,WNW,5.8,-,0.17,Rain,Light Rain,290,2011-10-19 04:46:00
12:53 AM,62.1,59.0,90,29.52,7.0,West,9.2,-,0.17,Rain,Light Rain,280,2011-10-19 04:53:00
1:37 AM,59.0,55.4,88,29.54,8.0,West,10.4,-,0.01,,Overcast,270,2011-10-19 05:37:00
1:53 AM,57.9,55.0,90,29.53,9.0,West,13.8,-,0.01,,Overcast,270,2011-10-19 05:53:00
2:21 AM,55.4,53.6,94,29.55,9.0,WNW,10.4,20.7,N/A,,Overcast,290,2011-10-19 06:21:00
2:36 AM,55.4,51.8,88,29.55,8.0,WNW,9.2,-,0.00,Rain,Light Rain,300,2011-10-19 06:36:00
2:53 AM,55.0,51.1,86,29.53,9.0,West,10.4,-,0.00,,Overcast,270,2011-10-19 06:53:00
3:53 AM,53.1,50.0,89,29.52,10.0,West,5.8,-,N/A,,Overcast,280,2011-10-19 07:53:00
4:17 AM,53.6,48.2,82,29.53,10.0,WNW,6.9,-,N/A,,Overcast,290,2011-10-19 08:17:00
4:53 AM,52.0,46.9,83,29.52,10.0,NW,6.9,-,N/A,,Overcast,310,2011-10-19 08:53:00
5:53 AM,50.0,46.9,89,29.53,4.0,West,9.2,-,0.05,Rain,Rain,280,2011-10-19 09:53:00
6:53 AM,50.0,46.0,86,29.55,8.0,West,10.4,-,0.04,Rain,Light Rain,260,2011-10-19 10:53:00
7:53 AM,48.9,45.0,86,29.53,10.0,WNW,5.8,-,0.00,,Overcast,300,2011-10-19 11:53:00
8:53 AM,48.9,44.1,83,29.53,10.0,West,9.2,19.6,N/A,,Overcast,280,2011-10-19 12:53:00
9:53 AM,50.0,44.1,80,29.55,10.0,West,5.8,-,N/A,,Mostly Cloudy,280,2011-10-19 13:53:00
10:53 AM,50.0,43.0,77,29.55,10.0,West,11.5,-,N/A,,Overcast,280,2011-10-19 14:53:00
11:53 AM,48.9,42.1,77,29.56,10.0,West,11.5,-,N/A,,Overcast,260,2011-10-19 15:53:00
12:53 PM,48.9,42.1,77,29.57,10.0,West,8.1,17.3,N/A,,Overcast,270,2011-10-19 16:53:00
1:53 PM,48.9,41.0,74,29.56,10.0,West,9.2,-,N/A,,Overcast,270,2011-10-19 17:53:00
2:53 PM,48.9,39.9,71,29.57,10.0,WNW,11.5,-,N/A,,Overcast,290,2011-10-19 18:53:00
3:53 PM,48.9,41.0,74,29.60,10.0,WSW,5.8,-,0.00,,Light Drizzle,250,2011-10-19 19:53:00
4:53 PM,48.9,41.0,74,29.62,10.0,West,8.1,-,0.00,,Light Drizzle,280,2011-10-19 20:53:00
5:53 PM,48.9,41.0,74,29.64,10.0,WSW,8.1,-,0.00,,Overcast,250,2011-10-19 21:53:00
6:53 PM,48.0,41.0,77,29.67,10.0,West,12.7,23.0,N/A,,Overcast,270,2011-10-19 22:53:00
7:03 PM,48.2,42.8,82,29.67,2.5,WSW,9.2,-,0.00,Rain,Light Rain,250,2011-10-19 23:03:00
7:10 PM,46.4,42.8,87,29.67,3.0,WSW,9.2,16.1,0.00,Rain,Light Rain,240,2011-10-19 23:10:00
7:37 PM,46.4,42.8,87,29.69,3.0,West,11.5,18.4,0.00,Rain,Light Rain,260,2011-10-19 23:37:00
7:53 PM,48.0,41.0,77,29.70,3.0,SW,10.4,-,0.00,,Light Drizzle,230,2011-10-19 23:53:00
8:53 PM,48.0,41.0,77,29.71,7.0,WSW,13.8,19.6,0.00,,Overcast,250,2011-10-20 00:53:00
9:08 PM,48.2,41.0,76,29.71,7.0,West,11.5,19.6,N/A,,Overcast,260,2011-10-20 01:08:00
9:53 PM,46.9,42.1,83,29.72,7.0,West,10.4,19.6,N/A,,Overcast,260,2011-10-20 01:53:00
10:19 PM,48.2,41.0,76,29.72,7.0,West,10.4,23.0,N/A,,Overcast,260,2011-10-20 02:19:00
10:53 PM,46.9,41.0,80,29.72,7.0,WSW,9.2,-,0.00,,Light Drizzle,250,2011-10-20 02:53:00
11:53 PM,48.0,41.0,77,29.73,10.0,WSW,6.9,-,0.00,,Light Drizzle,250,2011-10-20 03:53:00